sat.trackr.live / text

‹ back to catalog

STARLINK-3926

NORAD 52543 · 2022-051L

PAYLOAD ACTIVE UNKNOWN

§ Identity

Operator
Country
US
Launch date
2022-05-13
Launch site
AFWTR
Launch vehicle
Mass (kg)
RCS (m²)

Purposes: comms

External: N2YO · Heavens-Above · Gunter

§ Orbital elements

Epoch: 2026-09-20T04:26:19.394016Z

Period
93.85 min
Inclination
53.1623°
Eccentricity
0.0001061
Mean motion
15.34394596 rev/d
Perigee alt
462.0 km
Apogee alt
463.4 km
Semi-major
6,840.9 km
B*
1.3699e-5
RAAN
323.5513°
Arg perigee
79.3576°
Mean anomaly
280.7546°
Rev number
24,097

§ Raw data

STARLINK-39261 52543U 22051L   26263.18494669  .00000087  00000+0  13699-4 0  99912 52543  53.1623 323.5513 0001061  79.3576 280.7546 15.34394596240971

JSON: /api/v1/satellites/52543 · /tle

For live sub-satellite position, see the globe view (requires WebGL).

§ Visibility from observer

Set your observer location to see the next 7 days of passes ≥ 10°. The values pass through the URL so the page stays shareable.

No JS? Fill the form by hand. The geolocation button needs JavaScript.